Location: Trebic
(49.2170°N, 15.8830°E)
Time: 08:41:20
(UTC+01:00)

ISS - Visible Passes

Search period start: 01 December 2021 00:00
Search period end: 11 December 2021 00:00
Orbit: 417 x 423 km, 51.6° (Epoch: 01 December)

Date Brightness Start Highest point End Pass type
(mag) Time Alt. Az. Time Alt. Az. Time Alt. Az.
01 Dec -3.5 17:08:48 10° WNW 17:12:09 55° N 17:14:26 19° ENE visible
01 Dec -1.6 18:45:42 10° WNW 18:47:25 27° WNW 18:47:25 27° WNW visible
02 Dec -3.9 17:58:30 10° WNW 18:01:55 88° NNE 18:02:15 71° ESE visible
03 Dec -3.8 17:11:18 10° WNW 17:14:42 72° NNE 17:17:10 17° E visible
03 Dec -1.5 18:48:16 10° W 18:50:10 25° WSW 18:50:10 25° WSW visible
04 Dec -3.0 18:00:58 10° WNW 18:04:16 49° SSW 18:05:13 36° SSE visible
05 Dec -3.5 17:13:43 10° WNW 17:17:06 69° SSW 17:20:25 10° ESE visible
05 Dec -1.0 18:51:20 10° W 18:53:26 16° SW 18:53:26 16° SW visible
06 Dec -1.4 18:03:40 10° W 18:06:25 23° SW 18:08:54 11° SSE visible
07 Dec -2.0 17:16:13 10° W 17:19:18 33° SSW 17:22:23 10° SSE visible
09 Dec -0.6 17:19:13 10° W 17:21:18 15° SW 17:23:22 10° S visible
